Location: Helsinki
(60.1699°N, 24.9384°E)
Time: 23:23:59
(UTC+03:00)

Vanguard 2 - All Passes

Search period start: 02 October 2022 00:00
Search period end: 12 October 2022 00:00
Orbit: 552 x 2935 km, 32.9° (Epoch: 02 October)

Date Brightness Start Highest point End Pass type
(mag) Time Alt. Az. Time Alt. Az. Time Alt. Az.
02 Oct - 13:45:28 10° SSE 13:50:37 13° SE 13:56:23 10° ESE daylight
02 Oct - 15:48:19 10° SSW 15:58:01 22° SSE 16:09:18 10° SE daylight
02 Oct - 17:55:42 10° SW 18:06:19 22° SSW 18:17:52 10° SSE daylight
02 Oct - 20:07:24 10° WSW 20:14:20 14° SW 20:21:18 10° S visible
03 Oct - 14:00:24 10° S 14:06:49 15° SSE 14:14:15 10° ESE daylight
03 Oct - 16:04:42 10° SW 16:14:25 22° S 16:25:50 10° SE daylight
03 Oct - 18:12:45 10° SW 18:22:43 20° SSW 18:33:32 10° SSE daylight
03 Oct - 20:27:45 10° SW 20:30:30 11° SW 20:33:15 10° SSW visible
04 Oct - 14:15:58 10° S 14:23:05 17° SSE 14:31:33 10° ESE daylight
04 Oct - 16:21:16 10° SW 16:30:52 22° S 16:42:10 10° SE daylight
04 Oct - 18:30:07 10° SW 18:39:06 18° SSW 18:48:48 10° SSE daylight
05 Oct - 14:31:55 10° SSW 14:39:25 18° SSE 14:48:31 10° SE daylight
05 Oct - 16:38:01 10° SW 16:47:19 21° S 16:58:15 10° SE daylight
05 Oct - 18:47:57 10° SW 18:55:27 15° SSW 19:03:27 10° S daylight
06 Oct - 12:47:44 10° SSE 12:48:53 10° SE 12:50:04 10° SE daylight
06 Oct - 14:48:09 10° SSW 14:55:49 19° SSE 15:05:12 10° SE daylight
06 Oct - 16:54:59 10° SW 17:03:47 19° S 17:14:02 10° SSE daylight
06 Oct - 19:06:51 10° SW 19:11:45 12° SSW 19:16:51 10° SSW visible
07 Oct - 13:01:25 10° SSE 13:05:06 12° SSE 13:09:17 10° SE daylight
07 Oct - 15:04:38 10° SSW 15:12:16 19° S 15:21:39 10° SE daylight
07 Oct - 17:12:15 10° SW 17:20:15 17° SSW 17:29:27 10° SSE daylight
08 Oct - 13:16:47 10° S 13:21:24 13° SSE 13:26:50 10° SE daylight
08 Oct - 15:21:19 10° SW 15:28:44 18° S 15:37:51 10° SE daylight
08 Oct - 17:29:56 10° SW 17:36:41 15° SSW 17:44:19 10° S daylight
09 Oct - 13:32:45 10° S 13:37:48 14° SSE 13:43:50 10° SE daylight
09 Oct - 15:38:14 10° SW 15:45:15 17° S 15:53:45 10° SSE daylight
09 Oct - 17:48:31 10° SW 17:53:07 12° SSW 17:58:06 10° S daylight
10 Oct - 13:49:02 10° SSW 13:54:14 15° SSE 14:00:30 10° SE daylight
10 Oct - 15:55:28 10° SW 16:01:46 16° S 16:09:16 10° SSE daylight
11 Oct - 14:05:39 10° SSW 14:10:43 15° S 14:16:50 10° SE daylight
11 Oct - 16:13:09 10° SW 16:18:17 13° SSW 16:24:11 10° S daylight
